When you browse on this site, cookies collect data to enhance your experience and personalize the content and advertising you see.
Visit our Privacy Policy to learn more. By continuing to use the site, you agree to this use of cookies and data.
  • în România
  • Lista ţărilor
  • Pe 7 zile
  • Temperatura apei
  • Hartă satelitară
  • Meteo pe hartă
  • Widget-uri
  • user-avatar
    Intrare

    Meteo pe oră la Plymouth

    Astăzi, 18 Ianuarie, Vineri

    Timp Temperatura Precipitaţii Vânt Presiune Umiditate
    00:00 +3°C° 0 mm 3 m/s 762 mmHg 68%
    01:00 +3°C° 0 mm 3 m/s 761 mmHg 67%
    02:00 +3°C° 0 mm 4 m/s 761 mmHg 67%
    03:00 +3°C° 0 mm 5 m/s 760 mmHg 67%
    04:00 +3°C° 0.1 mm 6 m/s 760 mmHg 70%
    05:00 +3°C° 0.1 mm 7 m/s 759 mmHg 74%
    06:00 +3°C° 0 mm 9 m/s 758 mmHg 77%
    07:00 +3°C° 0.1 mm 9 m/s 758 mmHg 79%
    08:00 +3°C° 0.1 mm 9 m/s 757 mmHg 81%
    09:00 +3°C° 0.1 mm 10 m/s 757 mmHg 83%
    10:00 +5°C° 0.7 mm 10 m/s 756 mmHg 86%
    11:00 +5°C° 0.7 mm 10 m/s 756 mmHg 89%
    12:00 +4°C° 0.7 mm 11 m/s 756 mmHg 92%
    13:00 +6°C° 1.3 mm 10 m/s 755 mmHg 91%
    14:00 +6°C° 1.3 mm 9 m/s 755 mmHg 91%
    15:00 +7°C° 1.3 mm 9 m/s 754 mmHg 91%
    16:00 +6°C° 0.8 mm 7 m/s 754 mmHg 91%
    17:00 +7°C° 0.8 mm 5 m/s 754 mmHg 91%
    18:00 +6°C° 0.8 mm 4 m/s 754 mmHg 91%
    19:00 +7°C° 0.1 mm 3 m/s 754 mmHg 90%
    20:00 +5°C° 0.1 mm 3 m/s 754 mmHg 90%
    21:00 +6°C° 0.1 mm 2 m/s 754 mmHg 90%
    22:00 +6°C° 0 mm 2 m/s 753 mmHg 90%
    23:00 +6°C° 0 mm 2 m/s 753 mmHg 90%

    Mâine, 19 Ianuarie, Sâmbătă

    Timp Temperatura Precipitaţii Vânt Presiune Umiditate
    00:00 +6°C° 0 mm 2 m/s 753 mmHg 89%
    01:00 +6°C° 0 mm 2 m/s 753 mmHg 90%
    02:00 +6°C° 0 mm 2 m/s 753 mmHg 90%
    03:00 +6°C° 0 mm 2 m/s 752 mmHg 90%
    04:00 +6°C° 0 mm 2 m/s 752 mmHg 91%
    05:00 +6°C° 0 mm 2 m/s 752 mmHg 92%
    06:00 +6°C° 0 mm 2 m/s 752 mmHg 92%
    07:00 +7°C° 0 mm 2 m/s 752 mmHg 92%
    08:00 +7°C° 0 mm 2 m/s 752 mmHg 92%
    09:00 +7°C° 0 mm 2 m/s 752 mmHg 92%
    10:00 +8°C° 0.2 mm 2 m/s 752 mmHg 89%
    11:00 +9°C° 0.2 mm 3 m/s 752 mmHg 86%
    12:00 +10°C° 0.2 mm 3 m/s 752 mmHg 83%
    13:00 +10°C° 0.5 mm 3 m/s 752 mmHg 83%
    14:00 +10°C° 0.5 mm 3 m/s 752 mmHg 83%
    15:00 +10°C° 0.5 mm 2 m/s 751 mmHg 83%
    16:00 +9°C° 0.1 mm 3 m/s 752 mmHg 86%
    17:00 +8°C° 0.1 mm 3 m/s 752 mmHg 88%
    18:00 +7°C° 0.1 mm 3 m/s 752 mmHg 91%
    19:00 +5°C° 0 mm 3 m/s 752 mmHg 91%
    20:00 +5°C° 0 mm 3 m/s 753 mmHg 91%
    21:00 +5°C° 0 mm 3 m/s 753 mmHg 91%
    22:00 +4°C° 0 mm 3 m/s 753 mmHg 92%
    23:00 +4°C° 0 mm 3 m/s 754 mmHg 92%

    Poimâine, 20 Ianuarie, Duminică

    Timp Temperatura Precipitaţii Vânt Presiune Umiditate
    00:00 +4°C° 0 mm 3 m/s 754 mmHg 92%
    01:00 +4°C° 0 mm 4 m/s 755 mmHg 93%
    02:00 +3°C° 0 mm 4 m/s 755 mmHg 94%
    03:00 +3°C° 0 mm 4 m/s 756 mmHg 95%
    04:00 +4°C° 0 mm 4 m/s 756 mmHg 95%
    05:00 +4°C° 0 mm 4 m/s 757 mmHg 96%
    06:00 +5°C° 0 mm 4 m/s 757 mmHg 96%
    07:00 +5°C° 0 mm 4 m/s 758 mmHg 96%
    08:00 +5°C° 0 mm 4 m/s 759 mmHg 95%
    09:00 +5°C° 0 mm 3 m/s 760 mmHg 95%
    10:00 +7°C° 0 mm 3 m/s 760 mmHg 91%
    11:00 +8°C° 0 mm 3 m/s 761 mmHg 88%
    12:00 +9°C° 0 mm 3 m/s 762 mmHg 85%
    13:00 +9°C° 0.1 mm 3 m/s 762 mmHg 85%
    14:00 +8°C° 0.1 mm 3 m/s 762 mmHg 85%
    15:00 +8°C° 0.1 mm 3 m/s 763 mmHg 85%
    16:00 +6°C° 0 mm 4 m/s 764 mmHg 88%
    17:00 +5°C° 0 mm 4 m/s 764 mmHg 90%
    18:00 +4°C° 0 mm 4 m/s 765 mmHg 93%
    19:00 +4°C° 0 mm 4 m/s 766 mmHg 93%
    20:00 +3°C° 0 mm 4 m/s 766 mmHg 92%
    21:00 +3°C° 0 mm 4 m/s 767 mmHg 92%
    22:00 +3°C° 0 mm 4 m/s 767 mmHg 92%
    23:00 +3°C° 0 mm 4 m/s 768 mmHg 93%

    21 Ianuarie, Luni

    Timp Temperatura Precipitaţii Vânt Presiune Umiditate
    00:00 +2°C° 0 mm 5 m/s 768 mmHg 93%
    01:00 +2°C° 0 mm 5 m/s 768 mmHg 93%
    02:00 +2°C° 0 mm 5 m/s 769 mmHg 92%
    03:00 +2°C° 0 mm 5 m/s 769 mmHg 92%
    04:00 +2°C° 0 mm 5 m/s 769 mmHg 91%
    05:00 +1°C° 0 mm 4 m/s 769 mmHg 91%
    06:00 +1°C° 0 mm 4 m/s 769 mmHg 90%
    07:00 +1°C° 0 mm 4 m/s 769 mmHg 89%
    08:00 +2°C° 0 mm 3 m/s 770 mmHg 88%
    09:00 +3°C° 0 mm 2 m/s 770 mmHg 86%
    10:00 +3°C° 0 mm 3 m/s 770 mmHg 82%
    11:00 +5°C° 0 mm 3 m/s 769 mmHg 78%
    12:00 +7°C° 0 mm 3 m/s 769 mmHg 74%
    13:00 +7°C° 0 mm 3 m/s 769 mmHg 74%
    14:00 +6°C° 0 mm 4 m/s 768 mmHg 74%
    15:00 +6°C° 0 mm 5 m/s 767 mmHg 74%
    16:00 +5°C° 0 mm 5 m/s 767 mmHg 77%
    17:00 +4°C° 0 mm 6 m/s 766 mmHg 79%
    18:00 +4°C° 0 mm 7 m/s 765 mmHg 81%
    19:00 +4°C° 0 mm 8 m/s 764 mmHg 81%
    20:00 +5°C° 0 mm 9 m/s 763 mmHg 81%
    21:00 +4°C° 0 mm 11 m/s 762 mmHg 81%
    22:00 +6°C° 1.2 mm 11 m/s 761 mmHg 85%
    23:00 +5°C° 1.2 mm 12 m/s 760 mmHg 88%

    22 Ianuarie, Marţi

    Timp Temperatura Precipitaţii Vânt Presiune Umiditate
    00:00 +7°C° 1.2 mm 13 m/s 758 mmHg 92%
    01:00 +5°C° 0.4 mm 12 m/s 758 mmHg 87%
    02:00 +4°C° 0.4 mm 11 m/s 757 mmHg 83%
    03:00 +3°C° 0.4 mm 10 m/s 757 mmHg 78%
    04:00 +2°C° 0.1 mm 10 m/s 757 mmHg 79%
    05:00 +2°C° 0.1 mm 9 m/s 756 mmHg 79%
    06:00 +1°C° 0.1 mm 8 m/s 756 mmHg 80%
    07:00 +1°C° 0.2 mm 9 m/s 756 mmHg 79%
    08:00 +1°C° 0.2 mm 10 m/s 756 mmHg 77%
    09:00 +2°C° 0.2 mm 11 m/s 756 mmHg 76%
    10:00 +2°C° 0.2 mm 11 m/s 755 mmHg 76%
    11:00 +2°C° 0.2 mm 11 m/s 755 mmHg 75%
    12:00 +2°C° 0.2 mm 11 m/s 755 mmHg 75%
    13:00 +2°C° 0.4 mm 11 m/s 754 mmHg 77%
    14:00 +2°C° 0.4 mm 11 m/s 753 mmHg 79%
    15:00 +2°C° 0.4 mm 11 m/s 753 mmHg 80%
    16:00 +1°C° 0.3 mm 11 m/s 753 mmHg 81%
    17:00 +1°C° 0.3 mm 10 m/s 753 mmHg 81%
    18:00 +1°C° 0.3 mm 10 m/s 753 mmHg 81%
    19:00 +1°C° 0.1 mm 9 m/s 752 mmHg 82%
    20:00 +1°C° 0.1 mm 9 m/s 752 mmHg 83%
    21:00 +1°C° 0.1 mm 8 m/s 752 mmHg 84%
    22:00 +2°C° 0.3 mm 7 m/s 751 mmHg 86%
    23:00 +2°C° 0.3 mm 6 m/s 751 mmHg 88%

    23 Ianuarie, Miercuri

    Timp Temperatura Precipitaţii Vânt Presiune Umiditate
    00:00 +2°C° 0.3 mm 5 m/s 750 mmHg 90%
    01:00 +2°C° 0.3 mm 5 m/s 749 mmHg 90%
    02:00 +2°C° 0.3 mm 6 m/s 749 mmHg 90%
    03:00 +2°C° 0.3 mm 6 m/s 749 mmHg 90%
    04:00 +1°C° 0.2 mm 8 m/s 748 mmHg 87%
    05:00 +1°C° 0.2 mm 9 m/s 748 mmHg 84%
    06:00 +1°C° 0.2 mm 10 m/s 748 mmHg 82%
    07:00 +1°C° 0.1 mm 10 m/s 748 mmHg 81%
    08:00 +1°C° 0.1 mm 10 m/s 748 mmHg 81%
    09:00 +1°C° 0.1 mm 10 m/s 748 mmHg 81%
    10:00 +1°C° 0.2 mm 10 m/s 748 mmHg 79%
    11:00 +1°C° 0.2 mm 11 m/s 748 mmHg 78%
    12:00 +2°C° 0.2 mm 12 m/s 747 mmHg 76%
    13:00 +1°C° 0.3 mm 13 m/s 747 mmHg 76%
    14:00 0°C° 0.3 mm 13 m/s 747 mmHg 76%
    15:00 0°C° 0.3 mm 14 m/s 747 mmHg 76%
    16:00 0°C° 0 mm 13 m/s 748 mmHg 77%
    17:00 -1°C° 0 mm 12 m/s 749 mmHg 77%
    18:00 -2°C° 0 mm 11 m/s 750 mmHg 78%
    19:00 -2°C° 0 mm 10 m/s 751 mmHg 78%
    20:00 -1°C° 0 mm 9 m/s 752 mmHg 77%
    21:00 -1°C° 0 mm 9 m/s 753 mmHg 77%
    22:00 0°C° 0 mm 9 m/s 753 mmHg 80%
    23:00 +1°C° 0 mm 10 m/s 753 mmHg 82%
    Arată mai mult